Miscellaneous Local Product
Issued by NWS North Platte, NE

Home | Current Version | Previous Version | Text Only | Print | Product List | Glossary On
Versions: 1 2 3 4 5 6 7 8 9 10 11 12 13 14 15 16 17 18 19 20 21 22 23 24 25 26 27 28 29 30 31 32 33 34 35 36 37 38 39 40 41 42 43 44 45 46 47 48 49 50
000
AXUS43 KLBF 160710
MISLBF


WESTERN AND NORTH CENTRAL NEBRASKA HOURLY WEATHER ROUNDUP
NATIONAL WEATHER SERVICE NORTH PLATTE NE
200 AM CDT TUE SEP 16 2014

***STATIONS NOT REPORTING VARIABLES SUCH AS SKY/WEATHER OR
PRESSURE ARE PROVIDED BY THE NEBRASKA DEPARTMENT OF
ROADS...RAWS...AND APRS NETWORKS...AND ARE NOT UNDER
NATIONAL WEATHER SERVICE QUALITY CONTROL***

...OBSERVATIONS IN AND NEAR THE EASTERN PANHANDLE OF NEBRASKA...

CITY           SKY/WX    TMP DP  RH WIND       PRES   REMARKS
PINE RIDGE     CLEAR     58  47  66 S18G30    30.09F
CHADRON        CLEAR     58  47  66 S7        30.08S
ALLIANCE       PTCLDY    52  47  83 S12       30.15F
SIDNEY         PTCLDY    55  50  83 S10       30.19F
WHITECLAY        N/A     56  44  64 S18         N/A
RUSHVILLE        N/A     55  45  69 S18         N/A
CRESCENT LAKE    N/A     52  46  79 S8          N/A
LISCO            N/A     56  46  66 E14         N/A
BIG SPRINGS      N/A     53  47  79 S8          N/A
$$

...OBSERVATIONS IN NORTH CENTRAL NEBRASKA...

CITY           SKY/WX    TMP DP  RH WIND       PRES   REMARKS
VALENTINE      CLEAR     51  41  68 S8        30.17S
THEDFORD       CLEAR     50  43  75 S6        30.21S
AINSWORTH      CLEAR     48  40  74 S13       30.19S
O`NEILL        CLEAR     45  41  88 S6        30.23F
ORD            CLEAR     41  39  93 CALM      30.24S
BROKEN BOW     CLEAR     39  37  92 CALM      30.24S
SPRINGVIEW       N/A     44  38  81 CALM        N/A
ROSE             N/A     46  43  89 E9          N/A
NEWPORT          N/A     45  40  83 S3          N/A
COMSTOCK         N/A     48  45  87 S7          N/A
CHAMBERS         N/A     44  39  84 S3          N/A
$$

...OBSERVATIONS IN SOUTHWEST NEBRASKA AND FAR NORTHEAST COLORADO...

CITY           SKY/WX    TMP DP  RH WIND       PRES   REMARKS
WRAY           FAIR      54  51  90 S6        30.23F
HOLYOKE        FAIR      52  48  87 SE5       30.22F
IMPERIAL       CLEAR     50  43  77 S9        30.23F
OGALLALA       CLEAR     52  46  77 S6        30.21F
NORTH PLATTE   CLEAR     49  42  77 S7        30.23S
MCCOOK         CLEAR     50  43  77 SE8       30.25F
LEXINGTON        N/A     47  44  87 SE7       30.25S FOG
PAXTON           N/A     49  45  85 SE3         N/A
SUTHERLAND       N/A     48  41  76 S9          N/A
BRADY            N/A     45  41  85 CALM        N/A
GOTHENBURG       N/A     47  40  78 CALM        N/A
CALLAWAY         N/A     41  39  94 SE5         N/A
$$

...SOME WEATHER OBSERVATIONS FROM AROUND THE REGION...

CITY           SKY/WX    TMP DP  RH WIND       PRES   REMARKS
DENVER         CLEAR     55  48  77 S6        30.22F
LARAMIE        PTCLDY    46  39  76 S6        30.29F
CHEYENNE       PTCLDY    52  46  80 W9        30.23F
SCOTTSBLUFF    PTCLDY    53  49  86 E10       30.14F
RAPID CITY     CLEAR     48  42  80 SE6       30.07F
PIERRE         CLEAR     49  38  65 SE12      30.12F
WINNER         FAIR      52  39  61 S10       30.15F
SIOUX FALLS    CLEAR     43  41  93 CALM      30.23F
OMAHA          PTCLDY    48  46  93 CALM      30.28R FOG
GRAND ISLAND   CLEAR     47  43  86 S6        30.27R
KANSAS CITY    CLEAR     48  47  96 N7        30.25S
WICHITA        MOCLDY    63  53  70 NE12      30.23R
HAYS           CLEAR     52  43  71 E5        30.26S
LIBERAL        CLOUDY    61  54  77 E5        30.28F
GOODLAND       CLOUDY    53  51  93 S10       30.27F
$$



USA.gov is the U.S. government's official web portal to all federal, state and local government web resources and services.